Location: Bernac-Dessus
(43.1606°N, 0.1144°E)
Time: 07:10:06
(UTC+00:00)

Daily predictions for brighter satellites

Satellite Brightness Start Highest point End
(mag) Time Altitude Azimuth Time Altitude Azimuth Time Altitude Azimuth
NOAA 6 4.0 16:49:31 10° SSE 16:54:39 73° ENE 16:59:48 10° N
USA 215 3.7 16:49:23 10° ENE 16:55:40 47° SE 17:01:55 10° SSW
Cosmos 1743 Rocket 3.7 16:51:57 10° N 16:56:22 57° E 17:00:44 10° SSE
COSMO-SKYMED 1 4.3 16:54:42 10° ENE 16:56:53 14° E 16:59:03 10° ESE
ATLAS 5 CENTAUR R/B 3.6 16:51:33 10° NW 16:57:12 50° WSW 17:03:41 10° SSE
PAYLOAD B 4.2 16:52:00 10° SSE 16:57:33 72° ENE 17:03:08 10° N
Cosmos 2298 Rocket 4.1 16:52:39 10° NNW 16:57:54 57° ENE 17:03:06 10° SE
PSLV R/B 4.0 16:53:50 10° SSE 16:57:56 87° WSW 17:02:04 10° NNW
Cosmos 2150 Rocket 4.1 16:54:14 10° NNW 16:59:17 53° ENE 17:04:18 10° SE
Cosmos 1818 3.8 16:55:00 10° NNW 17:00:19 48° NE 17:05:34 10° SE
Cosmos 1408 Rocket 4.1 16:57:40 10° NNW 17:02:01 64° W 17:06:18 10° S
Cosmos 1606 3.9 17:00:13 10° SE 17:03:18 23° E 17:06:24 10° NE
CZ-4B DEB 4.3 16:58:09 10° SSE 17:03:40 85° WSW 17:09:10 10° NNW
Sich 1 4.0 17:01:39 10° NNE 17:05:24 27° ENE 17:09:06 10° SE
BREEZE-M TANK 3.1 16:58:07 10° WNW 17:05:32 75° SSW 17:08:52 10° ESE
Cosmos 1842 Rocket 3.9 17:03:07 10° SSW 17:07:25 68° W 17:11:45 10° N
Cosmos 2333 Rocket 3.2 17:02:05 10° SW 17:07:33 47° WNW 17:13:02 10° NNE
Okean O Rocket 1.8 17:03:37 10° SE 17:07:48 49° ENE 17:12:01 10° N
ISS -3.8 17:06:57 10° SW 17:10:18 89° NW 17:13:33 11° ENE
Radarsat Rocket 4.1 17:04:28 10° SSE 17:10:23 84° ENE 17:16:55 10° NNW
Nadezhda 1 Rocket 4.0 17:04:25 10° S 17:10:40 70° E 17:17:02 10° NNE
COSMOS 2428 3.5 17:07:25 10° SW 17:13:01 55° WNW 17:18:40 10° NNE
Cosmos 1125 Rocket 3.6 17:09:01 10° N 17:14:06 51° ENE 17:19:08 10° SE
Cosmos 1805 Rocket 3.8 17:12:07 10° N 17:16:27 46° ENE 17:20:43 10° SSE
CZ-4B R/B 2.0 17:17:48 10° NE 17:20:34 30° E 17:23:21 10° SSE
Cosmos 1151 Rocket 4.4 17:17:40 10° SE 17:20:37 18° E 17:23:24 11° NE
Cosmos 2278 Rocket 2.2 17:15:33 10° NNW 17:21:16 82° ENE 17:26:57 10° SSE
Cosmos 1666 Rocket 4.5 17:18:50 10° NNE 17:22:33 26° ENE 17:26:16 10° SE
Cosmos 2154 Rocket 4.0 17:19:31 10° N 17:25:53 85° E 17:32:15 10° S
CRYOSAT 2 4.3 17:21:35 10° N 17:26:29 72° E 17:31:22 10° S
Cosmos 1862 3.5 17:22:29 10° N 17:26:32 78° W 17:30:32 10° S
Lacrosse 5 rocket 2.9 17:24:40 10° SSE 17:26:51 15° ESE 17:28:08 13° E
USA 267 3.7 17:22:02 10° E 17:28:04 42° NNE 17:34:08 10° NW
NOSS 0 Rocket 4.1 17:26:39 10° SSW 17:32:54 76° WNW 17:39:10 10° NNE
ERS-2 2.4 17:30:26 10° NNE 17:33:59 45° E 17:37:29 10° S
NOAA 12 4.2 17:28:52 10° SSE 17:34:12 85° WSW 17:39:34 10° NNW
Cosmos 2341 Rocket 4.1 17:28:40 10° N 17:34:49 54° ENE 17:40:59 10° SSE
CZ-2D R/B 4.3 17:31:44 10° ESE 17:34:50 24° ENE 17:37:57 10° NNE
SL-24 R/B - RUBIN 2 4.2 17:29:01 10° NNW 17:35:21 82° NE 17:40:55 10° SE
CZ-4 R/B 2.7 17:38:23 19° ENE 17:38:23 19° ENE 17:41:04 10° NNE
Cosmos 2219 Rocket 3.8 17:33:44 10° WSW 17:38:42 31° NW 17:43:41 10° N
TELKOM 3 3.1 17:37:46 10° WSW 17:40:34 73° NNW 17:41:32 31° NE
Envisat 4.4 17:36:27 10° S 17:41:15 42° W 17:46:05 10° NNW
SMAP 3.5 17:36:54 10° S 17:41:31 66° WSW 17:46:10 10° NNW
CZ-3B R/B 3.4 17:40:02 10° S 17:41:41 13° SE 17:42:22 12° SE
H-2A R/B 3.0 17:38:18 10° N 17:42:17 46° WNW 17:46:20 10° SW
BREEZE-M DEB (TANK) 1.5 17:39:42 10° WSW 17:42:31 88° NW 17:43:13 35° ENE
CZ-4B R/B 3.6 17:37:25 10° S 17:42:45 67° WSW 17:48:03 10° NNW
SKYMED 2 3.9 17:41:11 10° NNE 17:45:20 42° E 17:49:27 10° S
USA 81 4.4 17:41:27 10° N 17:46:28 43° E 17:51:27 10° SSE
CREW DRAGON DEMO-1 DEB 4.0 17:44:48 10° NW 17:47:22 25° NNE 17:47:43 25° NNE
Cosmos 2237 Rocket 2.4 17:42:17 10° SSW 17:47:53 73° WNW 17:53:32 10° NNE
GENESIS II 4.1 17:45:15 10° NNW 17:49:13 81° NE 17:53:05 10° SE
Cosmos 2285 Rocket 4.4 17:43:28 10° N 17:49:28 40° ENE 17:55:22 10° SE
NOAA 11 4.1 17:44:06 10° SSE 17:49:31 87° ENE 17:54:59 10° NNW
Cosmos 1939 Rocket 2.8 17:46:40 10° SSE 17:50:24 52° ENE 17:54:12 10° N
FengYun 1-2 T 4.3 17:46:07 10° SSE 17:51:41 86° WSW 17:57:15 10° NNW
Cosmos 1633 Rocket 3.3 17:49:10 10° N 17:53:23 44° ENE 17:57:33 10° SSE
H-2A R/B 3.1 17:52:26 22° E 17:53:42 25° ENE 17:57:51 10° NNE
SL-8 Rocket 3.9 17:52:51 10° N 17:59:01 63° E 18:05:13 10° SSE
USA 281 3.3 17:55:23 10° SE 18:01:42 53° ENE 18:08:02 10° NNW
Cosmos 2369 Rocket 3.5 17:58:19 10° N 18:02:09 21° NE 18:02:09 21° NE
Cosmos 2181 Rocket 4.0 17:57:27 10° S 18:03:49 68° E 18:10:11 10° NNE
MOS 1 Rocket 4.1 18:03:47 21° NE 18:06:45 37° E 18:11:44 10° SSE
Abrixas rocket 3.4 18:04:41 10° W 18:07:11 31° SW 18:08:24 21° SSE
Cosmos 389 Rocket 3.9 18:16:52 10° SW 18:20:04 36° WNW 18:23:14 10° N
YAOGAN 1 2.8 18:21:23 47° NE 18:21:23 47° NE 18:25:07 10° N
Cosmos 1689 Rocket 3.1 18:25:21 38° SSW 18:25:21 38° SSW 18:27:17 10° SSW
Cosmos 1933 3.7 18:22:30 10° SSW 18:26:29 64° W 18:29:41 16° N
SL-08 R/B 4.5 18:21:43 10° N 18:27:44 52° ENE 18:33:39 10° SSE
Cosmos 2297 3.6 18:22:47 10° NNW 18:28:29 77° ENE 18:34:10 10° SSE
Cosmos 1470 Rocket 4.2 18:24:31 10° N 18:35:05 - SSE 18:27:22 38° NNE
Cosmos 1943 Rocket 2.3 18:26:05 10° NNW 18:31:28 48° ENE 18:31:41 48° ENE
Cosmos 44 3.5 18:26:23 10° NNW 18:31:39 61° NE 18:32:40 51° E
Meteor 1-14 Rocket 4.3 18:26:17 10° N 18:32:08 57° ENE 18:38:00 10° SSE
Okean-O 2.4 18:28:23 10° SSE 18:32:48 80° ENE 18:37:16 10° N
COSMO-SKYMED 1 3.1 18:29:19 11° N 18:33:24 57° WNW 18:37:38 10° SSW
NOAA 15 4.4 18:28:32 10° SSE 18:33:48 72° ENE 18:39:04 10° N
CZ-2C R/B 2.8 18:29:46 10° SSE 18:34:57 80° ENE 18:39:55 10° N
Cosmos 1867 3.9 18:29:55 10° SW 18:35:18 64° NW 18:37:58 30° NNE
Cosmos 1515 Rocket 4.2 18:31:08 10° S 18:34:01 39° SSE 18:34:01 39° SSE
SL-16 R/B 2.2 18:30:04 10° SSW 18:35:44 82° WNW 18:38:48 29° NNE
ARGOS 4.3 18:38:30 27° NNE 18:38:30 27° NNE 18:41:13 10° N
PSLV R/B 4.1 18:36:54 41° N 18:38:11 70° WNW 18:42:11 10° SSW
USA 215 3.6 18:35:13 27° NE 18:38:45 58° NNW 18:45:07 10° WSW
Meteor 1-26 Rocket 4.3 18:34:58 10° S 18:40:59 87° W 18:47:04 10° N
SL-23 DEB 4.3 18:37:20 10° SW 18:41:08 61° SE 18:41:12 61° SE
Helios 1A Rocket 2.9 18:40:11 10° S 18:44:12 75° WSW 18:48:14 10° NNW
Cosmos 1782 3.6 18:40:35 10° S 18:43:15 42° S 18:43:15 42° S
Cosmos 2218 Rocket 4.2 18:38:43 10° NNW 18:44:50 71° W 18:50:56 10° S
Cosmos 1538 Rocket 4.4 18:39:46 10° S 18:43:58 47° SE 18:43:58 47° SE
ISS -1.5 18:44:39 10° WNW 18:46:31 21° NW 18:46:31 21° NW
CZ-4B R/B 4.4 18:51:11 10° NW 18:52:32 12° WNW 18:53:53 10° W
Cosmos 2366 rocket 4.4 18:49:42 10° NNW 18:55:48 60° W 19:01:49 10° S
Cosmos 1151 Rocket 4.4 18:53:52 10° SW 18:57:53 37° WNW 19:00:18 20° NNW
Lacrosse 5 rocket 3.1 19:01:59 10° WSW 19:03:47 26° WSW 19:03:47 26° WSW
USA 267 3.3 19:09:07 52° SSE 19:10:47 76° SW 19:17:21 10° NW
CZ-4 R/B 3.3 19:14:25 25° WNW 19:14:25 25° WNW 19:16:38 10° NNW
CSL-04 Debris 4.4 19:17:54 70° W 19:17:54 70° W 19:23:17 10° NNW
ATLAS CENTAUR R/B 4.0 19:05:45 10° NW 19:24:51 78° SW 19:27:27 51° SSE
H-2A R/B 3.0 19:33:04 46° W 19:33:04 46° W 19:37:53 10° NNW
Cosmos 2369 Rocket 3.8 19:41:29 10° NNW 19:43:59 27° NW 19:43:59 27° NW
Cosmos 1943 Rocket 4.3 20:10:27 10° NW 20:13:17 22° WNW 20:13:17 22° WNW
